Dauntless Aviation
Greetings, Guest! To participate, [sign up for a free account] or [log in]
Airports North America United States Colorado
98CO

NCMC HELIPORT

GREELEY, CO, USA

Airport Info

Location

Latitude / Longitude: 40°24'53"N / 104°42'28"W
  40°24.9'N / 104°42.4667'W
  40.4150 / -104.7078
Elevation: 4882 ft. (estimated)
Variation: 12E (1985)
From city: 00 miles N of GREELEY, CO

Operations

Facility use: Private
Sectional chart: DENVER
Control tower: no
Boundary ARTCC: DENVER
FSS: DENVER [1-800-WX-BRIEF]
Segmented circle: no

Communications

Nearby radio navigation aids

VOR radial/distance VOR name Freq Var
GLL 233oT/8.9 GILL VORTAC 114.20 13E
DVV 353oT/31.5 MILE HIGH VORTAC 114.70 11E
BJC 33oT/36.1 JEFFCO VOR/DME 115.40 11E
DEN 357oT/36.2 DENVER VOR/DME 117.90 11E
 
NDB name Hdg/Dist Freq Var ID

Services

Runway Information

Helipad H1

Dimensions: 40 x 40 ft.
Surface: PORTLAND CEMENT CONCRETE,NO SPECIAL SURFACE TREATMENT
 

Additional Remarks

Instrument Procedures

No published instrument procedures available
Topographic chart at:
Satellite photo at:
Airport distance calculator
From:
Weather Reports

METAR

KGXY
4.2nm NE
KGXY 292015Z AUTO 21007KT 10SM CLR 09/M05 A3043 RMK AO1
KFNL
14.3nm W
KFNL 292015Z AUTO 19011KT 10SM CLR 08/M04 A3044 RMK AO1
KLMO
25.8nm SW
KLMO 292015Z AUTO 17003KT 10SM CLR 10/M04 A3045 RMK AO2 T01021041
KEIK
28.6nm S
KEIK 292015Z AUTO 18006KT 10SM CLR 08/M06 A3043 RMK AO2 T00821056
KBDU
33.3nm SW
KBDU 292016Z AUTO 14005KT 10SM CLR 07/M03 A3042 RMK AO2
KDEN
35.0nm SE
KDEN 291953Z VRB05KT 10SM SCT046 SCT090 BKN140 BKN220 07/M05 A3044 RMK AO2 SLP299 T00721050

TAF

KDEN
35.0nm SE
KDEN 291904Z 2919/3024 16004KT P6SM FEW050 SCT080 BKN220 FM292100 VRB04KT P6SM FEW070 SCT220 FM300400 21008KT P6SM FEW080 BKN220 FM301300 VRB05KT P6SM SCT070 BKN150 FM301700 04008KT P6SM SCT060 OVC140
KBJC
35.3nm S
KBJC 291734Z 2918/3018 VRB04KT P6SM SCT050 OVC150 FM292000 10004KT P6SM FEW040 SCT070 FM300400 30004KT P6SM FEW080 BKN220 FM301300 VRB05KT P6SM SCT070 BKN150 FM301700 03007KT P6SM SCT060 OVC140
Safelog

 

Dauntless Aviation

© 2007-2015 Dauntless Aviation, all rights reserved
Information provided via PilotNav comes from a variety of official and unofficial data sources. As errors are possible, do not use PilotNav for primary flight planning purposes. Verify any information that you receive via PilotNav with current and canonical charts and other official documents. The material in this database is subject to database copyrights held by Dauntless Aviation and may not be copied without the express permission of Dauntless Aviation - licenses for use of part of all of this data are available for purchase; enquire via the Dauntless Aviation helpdesk. A number of mechanisms and markers exist in the database to protect against and identify infringement / copyright. Automated queries against this website are stictly prohibited, and all activity is logged and analyzed.